TimeCST,TemperatureF,Dew PointF,Humidity,Sea Level PressureIn,VisibilityMPH,Wind Direction,Wind SpeedMPH,Gust SpeedMPH,PrecipitationIn,Events,Conditions,WindDirDegrees,DateUTC
4:33 AM,6.8,3.2,85,29.94,3.0,WSW,3.5,-,N/A,Snow,Light Snow,240,2013-12-25 10:33:00
4:36 AM,6.8,3.2,85,29.94,3.0,WSW,4.6,-,N/A,Snow,Light Snow,240,2013-12-25 10:36:00
4:57 AM,6.8,3.2,85,29.94,7.0,WSW,3.5,-,N/A,Snow,Light Snow,240,2013-12-25 10:57:00
5:17 AM,6.8,3.2,85,29.94,10.0,WSW,3.5,-,N/A,Snow,Light Snow,240,2013-12-25 11:17:00
5:36 AM,6.8,3.2,85,29.94,10.0,SW,3.5,-,N/A,Snow,Light Snow,230,2013-12-25 11:36:00
5:57 AM,6.8,3.2,85,29.94,3.0,Calm,Calm,-,N/A,Snow,Light Snow,0,2013-12-25 11:57:00
6:17 AM,6.8,3.2,85,29.95,7.0,WSW,4.6,-,N/A,Snow,Light Snow,250,2013-12-25 12:17:00
6:36 AM,6.8,3.2,85,29.95,10.0,Calm,Calm,-,N/A,Snow,Light Snow,0,2013-12-25 12:36:00
6:57 AM,6.8,3.2,85,29.95,4.0,Calm,Calm,-,N/A,Snow,Light Snow,0,2013-12-25 12:57:00
7:17 AM,6.8,3.2,85,29.95,10.0,Calm,Calm,-,N/A,Snow,Light Snow,0,2013-12-25 13:17:00
7:37 AM,6.8,3.2,85,29.95,10.0,Calm,Calm,-,N/A,,Overcast,0,2013-12-25 13:37:00
7:56 AM,6.8,3.2,85,29.95,7.0,Calm,Calm,-,N/A,Snow,Light Snow,0,2013-12-25 13:56:00
8:17 AM,6.8,3.2,85,29.96,7.0,Calm,Calm,-,N/A,Snow,Light Snow,0,2013-12-25 14:17:00
8:37 AM,6.8,3.2,85,29.96,7.0,Calm,Calm,-,N/A,Snow,Light Snow,0,2013-12-25 14:37:00
8:57 AM,6.8,3.2,85,29.96,4.0,WSW,3.5,-,N/A,Snow,Light Snow,240,2013-12-25 14:57:00
9:17 AM,6.8,5.0,92,29.97,2.5,Calm,Calm,-,N/A,Snow,Light Snow,0,2013-12-25 15:17:00
9:37 AM,8.6,5.0,85,29.98,1.5,WSW,3.5,-,N/A,Snow,Light Snow,250,2013-12-25 15:37:00
9:56 AM,8.6,6.8,92,29.97,1.5,Calm,Calm,-,N/A,Snow,Light Snow,0,2013-12-25 15:56:00
10:17 AM,8.6,6.8,92,29.98,2.0,West,5.8,-,N/A,Snow,Light Snow,270,2013-12-25 16:17:00
10:37 AM,10.4,6.8,85,29.98,2.0,West,5.8,-,N/A,Snow,Light Snow,270,2013-12-25 16:37:00
10:56 AM,10.4,6.8,85,29.98,1.5,West,4.6,-,N/A,Snow,Light Snow,260,2013-12-25 16:56:00
11:17 AM,10.4,6.8,85,29.98,1.8,West,3.5,-,N/A,Snow,Light Snow,260,2013-12-25 17:17:00
11:37 AM,10.4,6.8,85,29.97,1.2,West,4.6,-,N/A,Snow,Light Snow,270,2013-12-25 17:37:00
11:56 AM,12.2,6.8,79,29.96,2.0,West,6.9,-,N/A,Snow,Light Snow,280,2013-12-25 17:56:00
12:17 PM,12.2,8.6,85,29.96,1.8,West,6.9,-,N/A,Snow,Light Snow,280,2013-12-25 18:17:00
12:37 PM,12.2,8.6,85,29.95,4.0,WNW,5.8,-,N/A,Snow,Light Snow,290,2013-12-25 18:37:00
12:57 PM,12.2,6.8,79,29.95,7.0,West,5.8,-,N/A,Snow,Light Snow,270,2013-12-25 18:57:00
1:16 PM,12.2,6.8,79,29.95,10.0,WNW,6.9,-,N/A,Snow,Light Snow,290,2013-12-25 19:16:00
1:37 PM,12.2,6.8,79,29.95,7.0,West,12.7,-,N/A,Snow,Light Snow,280,2013-12-25 19:37:00
1:56 PM,12.2,8.6,85,29.95,4.0,NW,9.2,-,N/A,Snow,Light Snow,310,2013-12-25 19:56:00
2:17 PM,12.2,6.8,79,29.96,4.0,West,13.8,17.3,N/A,Snow,Light Snow,280,2013-12-25 20:17:00
2:36 PM,12.2,8.6,85,29.96,0.8,NW,9.2,-,N/A,Snow,Light Snow,310,2013-12-25 20:36:00
2:57 PM,12.2,6.8,79,29.96,4.0,WNW,8.1,16.1,N/A,Snow,Light Snow,300,2013-12-25 20:57:00
3:16 PM,10.4,5.0,79,29.96,7.0,WNW,15.0,-,N/A,Snow,Light Snow,290,2013-12-25 21:16:00
3:37 PM,10.4,3.2,73,29.97,10.0,West,9.2,-,N/A,,Overcast,280,2013-12-25 21:37:00
3:57 PM,10.4,5.0,79,29.97,3.0,WNW,9.2,18.4,N/A,Snow,Light Snow,300,2013-12-25 21:57:00
4:16 PM,8.6,3.2,79,29.98,7.0,WNW,10.4,18.4,N/A,,Overcast,300,2013-12-25 22:16:00
4:37 PM,8.6,1.4,73,29.99,7.0,WNW,11.5,17.3,N/A,,Overcast,290,2013-12-25 22:37:00
4:57 PM,8.6,1.4,73,30.00,10.0,WNW,8.1,-,N/A,,Overcast,300,2013-12-25 22:57:00
5:16 PM,6.8,-0.4,72,30.00,10.0,NW,6.9,-,N/A,,Overcast,310,2013-12-25 23:16:00
5:37 PM,6.8,-0.4,72,30.00,10.0,WNW,10.4,-,N/A,,Overcast,300,2013-12-25 23:37:00
5:57 PM,6.8,-2.2,67,30.01,10.0,NW,8.1,-,N/A,,Overcast,310,2013-12-25 23:57:00
6:16 PM,6.8,-0.4,72,30.01,10.0,WNW,8.1,-,N/A,,Overcast,300,2013-12-26 00:16:00
6:37 PM,6.8,-0.4,72,30.01,10.0,NW,6.9,-,N/A,,Overcast,310,2013-12-26 00:37:00
6:57 PM,5.0,-2.2,72,30.01,10.0,NW,8.1,-,N/A,,Overcast,310,2013-12-26 00:57:00
7:16 PM,5.0,-2.2,72,30.01,10.0,WNW,8.1,-,N/A,,Overcast,290,2013-12-26 01:16:00
7:37 PM,5.0,-2.2,72,30.02,10.0,WNW,6.9,-,N/A,,Overcast,290,2013-12-26 01:37:00
7:56 PM,5.0,-2.2,72,30.01,10.0,WNW,6.9,-,N/A,,Overcast,290,2013-12-26 01:56:00
8:17 PM,5.0,-2.2,72,30.02,10.0,WNW,5.8,-,N/A,,Overcast,300,2013-12-26 02:17:00
8:37 PM,3.2,-2.2,78,30.01,10.0,WNW,5.8,-,N/A,,Overcast,290,2013-12-26 02:37:00
8:57 PM,3.2,-2.2,78,30.01,10.0,WNW,4.6,-,N/A,,Overcast,290,2013-12-26 02:57:00
9:17 PM,3.2,-2.2,78,30.01,10.0,Calm,Calm,-,N/A,,Overcast,0,2013-12-26 03:17:00
9:36 PM,3.2,-2.2,78,30.01,10.0,WNW,4.6,-,N/A,,Overcast,290,2013-12-26 03:36:00
9:57 PM,3.2,-2.2,78,30.01,10.0,Calm,Calm,-,N/A,,Overcast,0,2013-12-26 03:57:00
10:17 PM,3.2,-2.2,78,30.01,10.0,Calm,Calm,-,N/A,,Overcast,0,2013-12-26 04:17:00
10:36 PM,1.4,-2.2,85,30.00,10.0,Calm,Calm,-,N/A,,Overcast,0,2013-12-26 04:36:00
10:57 PM,-0.4,-4.0,85,30.01,10.0,Calm,Calm,-,N/A,,Mostly Cloudy,0,2013-12-26 04:57:00
11:17 PM,-0.4,-4.0,85,30.01,10.0,Calm,Calm,-,N/A,,Mostly Cloudy,0,2013-12-26 05:17:00
11:36 PM,-4.0,-7.6,85,30.01,10.0,Calm,Calm,-,N/A,,Mostly Cloudy,0,2013-12-26 05:36:00
11:57 PM,-5.8,-7.6,92,30.00,10.0,Calm,Calm,-,N/A,,Mostly Cloudy,0,2013-12-26 05:57:00